Home   Weather   Cupertino   Past weeks
Flag for USA

Past Weather in Cupertino, California, USA — February 2018

Now
56 °F

Clear.


Feels Like: 56 °F
Forecast: 84 / 57 °F
Wind: 3 mph from Southeast

Location: San Jose International Airport

Current Time: Oct 22, 2019 at 4:53:31 am

Latest Report: Oct 22, 2019 at 3:53 am


Visibility: 10 mi

Pressure: 30.16 "Hg

Humidity: 81%

Dew Point: 50 °F

Location of CupertinoLocation

February 2018 Weather in Cupertino — Graph

°F

High & Low Weather Summary for February 2018

 TemperatureHumidityPressure
High79 °F (Feb 9, 1:53 pm)93% (Feb 18, 2:03 am)30.44 "Hg (Feb 18, 2:03 am)
Low35 °F (Feb 20, 6:53 am)16% (Feb 6, 2:53 pm)29.83 "Hg (Feb 11, 1:53 pm)
Average54 °F56%30.12 "Hg
* Reported Feb 1 12:53 am — Feb 28 11:53 pm, Cupertino. Weather by CustomWeather, © 2019

Note: Actual official high and low records may vary slightly from our data, if they occured in-between our weather recording intervals... More about our weather records

Advertising

Cupertino Weather History for February 1, 2018

Scroll right to see more
 ConditionsComfort  
Time TempWeatherWind HumidityBarometerVisibility
12:53 am
Thu, Feb 1
50 °FClear.5 mph77%30.06 "Hg10 mi
1:53 am50 °FClear.No wind77%30.06 "Hg10 mi
2:53 am50 °FClear.No wind71%30.06 "Hg10 mi
3:53 am50 °FClear.No wind74%30.06 "Hg10 mi
4:53 am50 °FClear.No wind74%30.08 "Hg10 mi
5:53 am49 °FClear.No wind74%30.09 "Hg10 mi
6:53 am50 °FPartly cloudy.6 mph74%30.09 "Hg10 mi
7:53 am49 °FMostly cloudy.5 mph77%30.11 "Hg10 mi
8:53 am54 °FPartly sunny.No wind69%30.12 "Hg10 mi
9:53 am59 °FMostly cloudy.No wind58%30.12 "Hg10 mi
10:53 am64 °FMostly cloudy.5 mph45%30.13 "Hg10 mi
11:53 am66 °FMostly cloudy.6 mph45%30.12 "Hg10 mi
12:53 pm69 °FMostly cloudy.5 mph39%30.09 "Hg10 mi
1:53 pm74 °FCloudy.10 mph28%30.08 "Hg10 mi
2:53 pm73 °FCloudy.12 mph30%30.07 "Hg10 mi
3:53 pm73 °FCloudy.9 mph33%30.07 "Hg10 mi
4:53 pm70 °FBroken clouds.8 mph35%30.07 "Hg10 mi
5:53 pm64 °FPartly cloudy.6 mph43%30.09 "Hg10 mi
6:53 pm63 °FClear.6 mph47%30.10 "Hg10 mi
7:53 pm62 °FPassing clouds.No wind48%30.11 "Hg10 mi
8:53 pm62 °FPassing clouds.No wind54%30.12 "Hg10 mi
9:53 pm59 °FPassing clouds.No wind58%30.14 "Hg10 mi
10:53 pm57 °FPassing clouds.5 mph60%30.14 "Hg10 mi
11:53 pm55 °FPassing clouds.3 mph67%30.14 "Hg10 mi
Weather by CustomWeather, © 2019

See weather overview